Location: Bennemühlen
(52.5740°N, 9.7135°E)
Time: 16:28:11
(UTC+00:00)

Tiros 1 despin weight - Pass Details

Date: 25 February 2026
Orbit: 556 x 593 km, 48.2° (Epoch: 11 March)

Event Time Altitude Azimuth Distance (km) Brightness Sun altitude
Rises 17:25:15 0° 272° (W) 2,738 ? -5.7°
Reaches altitude 10° 17:28:33 10° 245° (WSW) 1,836 ? -6.2°
Maximum altitude 17:30:32 13° 217° (SW) 1,639 ? -6.5°
Drops below altitude 10° 17:32:30 10° 188° (S) 1,832 ? -6.8°
Sets 17:35:47 0° 161° (SSE) 2,724 ? -7.3°
